Stip, Macedonia

05:58 AM CET на 19 Ноември, 2017 (GMT +0100)
Skopje | | Change Station

Elev 784 ft 41.97 °N, 21.65 °E | Updated 28 minutes ago

Заоблачено
Заоблачено
46 °F
Feels Like 46 °F
С
2
Ветер Променлив Ветер from ССЗ

Денес
High -- | Low -- °F
--% Chance of Precip.
Вчера
High -- | Low -- °F
Precip. -- инчи
Притисок 29.92 инчи
Видливост 6.2 миљи
Облаци Делумно облачно 2300 ft
Заоблачено 4000 ft
Точка на kондензација 41 °F
Влажност 81%
Дожд 0.00 инчи
Височина на снег Not available.
6:25 AM 4:07 PM
Млада Месечината, 0% visible
METAR LWSK 190430Z 34002KT 9999 SCT023 OVC040 08/05 Q1013 NOSIG
Притисок 29.92 инчи
Видливост 6.2 миљи
Облаци Делумно облачно 2300 ft
Заоблачено 4000 ft
Точка на kондензација 41 °F
Влажност 81%
Дожд 0.00 инчи
Височина на снег Not available.
6:25 AM 4:07 PM
Млада Месечината, 0% visible
METAR LWSK 190430Z 34002KT 9999 SCT023 OVC040 08/05 Q1013 NOSIG

Get Severe Weather Alerts

Thanks for signing up!

Be on the lookout for a verification email in your inbox.

You'll start receiving the daily forecast at 6 AM.

×

10-Day Weather Forecast

×

Almanac

Астрономијата

Nov. 19, 2017 Изгревање Заоѓање
Актуелно време
Граѓанскиот самрак
Наутички самрак
Астрономски самрак
Месечината
Должина на видливата светлина
Должина на денот
Tomorrow will be .
, % of the Moon is Illuminated

Екстреми денес

Country Highs Country Lows

Community

WunderPhotos

Category 6

Welcome to Category 6. This is the collective home for Weather Underground's featured writeups by Dr. Jeff Masters (right), Bob Henson (left), Chris Burt, and other regular contributors.

Nearby

Квалитетот на воздухот

  Квалитетот на воздухот AQ индекс Загадувач
Not available.

Височина на снег

Station Depth Висина

Earthquake Activity

Град Distance Mag. Time & Date
Minimum magnitude displayed is 2.5.

Coastal Water Temperatures

Место Температура

Stations

Nearby Weather Stations

Локација на станицата Темп. Лични чувство за темп. со ветерот Точка на kондензација Влажност Ветер Precip. Elev Ажурирани Тип